Simultaneous Nadir Overpasses (SNOs) Predictions

Prediction of SNOs between GOES-16 and METOP-C Satellite Orbit:

Table of predicted SNOs for the next 14.0 days since TLE Epoch: 8/16/2019
Index Date Time (GOES-16) GOES-16 Lat,Lon METOP-C Lat,Lon Distance(km) Time Diff (sec)
1 08/17/2019 02:36:43 -0.00, -75.16 -0.20, -76.10 106.75 80
2 08/18/2019 02:13:24 0.00, -75.18 0.91, -71.10 464.20 80
3 08/19/2019 14:34:55 0.00, -75.23 0.11, -75.66 49.66 80
4 08/22/2019 02:30:37 -0.00, -75.26 -0.00, -75.27 0.91 80
5 08/24/2019 14:28:49 0.01, -75.34 -0.10, -74.83 57.52 80
6 08/26/2019 02:50:30 -0.02, -75.35 -0.91, -79.44 464.68 80
7 08/27/2019 02:27:10 -0.01, -75.38 0.20, -74.44 106.87 80
8 08/28/2019 14:48:42 0.02, -75.44 0.80, -79.00 405.97 80
9 08/29/2019 14:25:22 0.01, -75.46 -0.30, -74.01 165.87 80




NCC Satellite Simultaneous Nadir Overpasses (SNOs) Prediction Service
